Regional Weather Roundup
Issued by NWS

Home | Current Version | Previous Version | Graphics & Text | Print | Product List | Glossary On
Versions: 1 2 3 4 5 6 7 8 9 10 11 12 13 14 15 16 17 18 19 20 21 22 23 24 25 26 27 28
000
ASUS45 KBOI 240710
RWRID
WEATHER ROUNDUP FOR IDAHO
NATIONAL WEATHER SERVICE BOISE ID
100 AM MDT THU APR 24 2014

NOTE: "FAIR" INDICATES FEW OR NO CLOUDS BELOW 12000 FEET
WITH NO SIGNIFICANT WEATHER AND/OR OBSTRUCTIONS TO VISIBILITY

IDZ012-014-240800-
SOUTHWEST IDAHO


CITY           SKY/WX    TMP DP  RH WIND       PRES   REMARKS
BOISE          CLOUDY    48  34  58 SE9       29.96R
CALDWELL       CLOUDY    54  27  35 SE10G23   29.96F
MOUNTAIN HOME  PTCLDY    39  30  71 E9        29.97S WCI  33
$$

IDZ016-017-240800-
SOUTHCENTRAL IDAHO


CITY           SKY/WX    TMP DP  RH WIND       PRES   REMARKS
BURLEY         CLEAR     38  28  67 S9        30.00S WCI  31
JEROME         MOCLDY    40  29  64 E8        30.00S WCI  34
TWIN FALLS     PTCLDY    43  27  53 S13       29.98F
$$

IDZ019>023-240800-
SOUTHEAST IDAHO


CITY           SKY/WX    TMP DP  RH WIND       PRES   REMARKS
IDAHO FALLS    CLEAR     39  26  59 S12       30.01S WCI  32
POCATELLO      CLEAR     40  26  57 S10       30.03S WCI  33
REXBURG        CLEAR     37  26  64 S8        30.00R WCI  31
$$

IDZ006-010-011-018-031-032-240800-
CENTRAL IDAHO MOUNTAINS


CITY           SKY/WX    TMP DP  RH WIND       PRES   REMARKS
MCCALL         CLOUDY    34  30  85 CALM      29.92F
HAILEY         CLOUDY    36  23  60 NW7       30.02S WCI  30
STANLEY          N/A     33  24  69 SE6       29.97F WCI  28
SALMON         CLOUDY    45  21  39 SW14G20   29.91S
CHALLIS        CLOUDY    41  20  43 S8        29.94F
$$

IDZ002-004-006-007-026-240800-
NORTHERN IDAHO


CITY           SKY/WX    TMP DP  RH WIND       PRES   REMARKS
LEWISTON       CLOUDY    45  37  73 E6        29.87F
LOWELL           N/A     42  40  92 CALM      29.95F
COEUR D`ALENE  CLOUDY    43  36  75 S7        29.84F
MULLAN PASS    LGT SNOW  27  27 100 CALM      29.81S VSB 3/4
$$



USA.gov is the U.S. government's official web portal to all federal, state and local government web resources and services.